Tracking 28081 objects as of 26-Sep-2023
HD Live streaming from Space Station
objects crossing your sky now

STARLINK-5266

Track STARLINK-5266 now!
10-day predictions
STARLINK-5266 is classified as:


NORAD ID: 55290
Int'l Code: 2023-010X
Perigee: 577.0 km
Apogee: 581.4 km
Inclination: 70.0 °
Period: 96.1 minutes
Semi major axis: 6950 km
RCS: Unknown
Launch date: January 19, 2023
Source: United States (US)
Launch site: AIR FORCE WESTERN TEST RANGE (AFWTR)
Your satellite tracking list
Your tracking list is empty




NASA's NSSDC Master Catalog

Two Line Element Set (TLE):
1 55290U 23010X   23268.33931252 -.00001393  00000-0 -10891-3 0  9996
2 55290  69.9996 124.5134 0003171 265.4981  94.5816 14.98339328 39003
Source of the keplerian elements: AFSPC